When you browse on this site, cookies collect data to enhance your experience and personalize the content and advertising you see.
Visit our Privacy Policy to learn more. By continuing to use the site, you agree to this use of cookies and data.
  • In Hungary
  • List of Countries
  • For 7 days
  • Water Temperature
  • Weather Map
  • News
  • Weather Widgets
  • user-avatar
    Login

    Hourly Weather Khlepcha

    Today, 10 April, Friday

    Time Temperature Precipitation Wind Pressure Humidity
    00:00 +11°C° 0 mm 3 mps 746 mmHg 53%
    01:00 +11°C° 0 mm 3 mps 746 mmHg 55%
    02:00 +11°C° 0 mm 3 mps 745 mmHg 59%
    03:00 +10°C° 0 mm 3 mps 745 mmHg 65%
    04:00 +9°C° 0 mm 3 mps 745 mmHg 71%
    05:00 +9°C° 0 mm 3 mps 745 mmHg 77%
    06:00 +10°C° 0.1 mm 4 mps 746 mmHg 77%
    07:00 +9°C° 0.1 mm 5 mps 746 mmHg 76%
    08:00 +10°C° 0 mm 6 mps 746 mmHg 74%
    09:00 +10°C° 0.1 mm 7 mps 747 mmHg 70%
    10:00 +10°C° 0.1 mm 7 mps 747 mmHg 66%
    11:00 +9°C° 0.1 mm 8 mps 748 mmHg 63%
    12:00 +10°C° 0 mm 8 mps 748 mmHg 54%
    13:00 +10°C° 0 mm 7 mps 748 mmHg 45%
    14:00 +11°C° 0 mm 7 mps 749 mmHg 36%
    15:00 +10°C° 0 mm 7 mps 749 mmHg 36%
    16:00 +10°C° 0 mm 7 mps 749 mmHg 36%
    17:00 +9°C° 0 mm 6 mps 749 mmHg 36%
    18:00 +8°C° 0 mm 6 mps 749 mmHg 41%
    19:00 +7°C° 0 mm 5 mps 749 mmHg 45%
    20:00 +6°C° 0 mm 4 mps 750 mmHg 49%
    21:00 +5°C° 0 mm 4 mps 750 mmHg 53%
    22:00 +4°C° 0 mm 3 mps 750 mmHg 56%
    23:00 +4°C° 0 mm 3 mps 750 mmHg 60%

    Tomorrow, 11 April, Saturday

    Time Temperature Precipitation Wind Pressure Humidity
    00:00 +3°C° 0 mm 3 mps 751 mmHg 62%
    01:00 +3°C° 0 mm 3 mps 751 mmHg 64%
    02:00 +3°C° 0 mm 3 mps 751 mmHg 66%
    03:00 +2°C° 0 mm 3 mps 751 mmHg 65%
    04:00 +2°C° 0 mm 3 mps 751 mmHg 65%
    05:00 +1°C° 0 mm 3 mps 751 mmHg 65%
    06:00 +3°C° 0 mm 4 mps 751 mmHg 60%
    07:00 +4°C° 0 mm 4 mps 751 mmHg 55%
    08:00 +5°C° 0 mm 4 mps 752 mmHg 50%
    09:00 +7°C° 0 mm 5 mps 752 mmHg 47%
    10:00 +8°C° 0 mm 6 mps 752 mmHg 44%
    11:00 +9°C° 0 mm 6 mps 752 mmHg 41%
    12:00 +9°C° 0 mm 6 mps 752 mmHg 40%
    13:00 +10°C° 0 mm 7 mps 752 mmHg 39%
    14:00 +10°C° 0 mm 7 mps 752 mmHg 38%
    15:00 +10°C° 0 mm 7 mps 752 mmHg 36%
    16:00 +9°C° 0 mm 7 mps 752 mmHg 34%
    17:00 +9°C° 0 mm 7 mps 752 mmHg 32%
    18:00 +7°C° 0 mm 6 mps 753 mmHg 36%
    19:00 +6°C° 0 mm 5 mps 753 mmHg 40%
    20:00 +5°C° 0 mm 4 mps 754 mmHg 44%
    21:00 +4°C° 0 mm 4 mps 754 mmHg 47%
    22:00 +3°C° 0 mm 3 mps 755 mmHg 51%
    23:00 +2°C° 0 mm 3 mps 755 mmHg 54%

    Day after tomorrow, 12 April, Sunday

    Time Temperature Precipitation Wind Pressure Humidity
    00:00 +3°C° 0 mm 2 mps 756 mmHg 55%
    01:00 +2°C° 0 mm 2 mps 756 mmHg 57%
    02:00 +2°C° 0 mm 2 mps 756 mmHg 58%
    03:00 +1°C° 0 mm 2 mps 756 mmHg 58%
    04:00 +1°C° 0 mm 2 mps 756 mmHg 58%
    05:00 +2°C° 0 mm 1 mps 756 mmHg 58%
    06:00 +3°C° 0 mm 1 mps 756 mmHg 53%
    07:00 +4°C° 0 mm 1 mps 756 mmHg 48%
    08:00 +5°C° 0 mm 0 mps 757 mmHg 43%
    09:00 +7°C° 0 mm 1 mps 756 mmHg 39%
    10:00 +8°C° 0 mm 1 mps 756 mmHg 35%
    11:00 +9°C° 0 mm 1 mps 756 mmHg 31%
    12:00 +8°C° 0 mm 2 mps 756 mmHg 30%
    13:00 +9°C° 0 mm 2 mps 755 mmHg 29%
    14:00 +9°C° 0 mm 2 mps 755 mmHg 28%
    15:00 +10°C° 0 mm 2 mps 754 mmHg 29%
    16:00 +10°C° 0 mm 2 mps 754 mmHg 30%
    17:00 +10°C° 0 mm 2 mps 753 mmHg 31%
    18:00 +9°C° 0 mm 2 mps 753 mmHg 35%
    19:00 +7°C° 0 mm 2 mps 753 mmHg 39%
    20:00 +6°C° 0 mm 2 mps 752 mmHg 43%
    21:00 +6°C° 0 mm 2 mps 752 mmHg 45%
    22:00 +4°C° 0 mm 3 mps 752 mmHg 47%
    23:00 +4°C° 0 mm 3 mps 751 mmHg 49%

    13 April, Monday

    Time Temperature Precipitation Wind Pressure Humidity
    00:00 +4°C° 0 mm 3 mps 751 mmHg 49%
    01:00 +4°C° 0 mm 4 mps 751 mmHg 49%
    02:00 +4°C° 0 mm 4 mps 750 mmHg 49%
    03:00 +3°C° 0 mm 4 mps 750 mmHg 55%
    04:00 +3°C° 0 mm 4 mps 749 mmHg 60%
    05:00 +3°C° 0 mm 4 mps 749 mmHg 65%
    06:00 +3°C° 0 mm 5 mps 748 mmHg 65%
    07:00 +6°C° 0 mm 5 mps 748 mmHg 65%
    08:00 +7°C° 0 mm 5 mps 748 mmHg 65%
    09:00 +9°C° 0 mm 5 mps 747 mmHg 60%
    10:00 +13°C° 0 mm 6 mps 747 mmHg 54%
    11:00 +15°C° 0 mm 6 mps 746 mmHg 49%
    12:00 +16°C° 0 mm 6 mps 745 mmHg 46%
    13:00 +17°C° 0 mm 6 mps 745 mmHg 43%
    14:00 +19°C° 0 mm 6 mps 744 mmHg 40%
    15:00 +17°C° 0 mm 6 mps 743 mmHg 42%
    16:00 +17°C° 0 mm 5 mps 743 mmHg 43%
    17:00 +17°C° 0 mm 5 mps 742 mmHg 45%
    18:00 +16°C° 0 mm 5 mps 742 mmHg 48%
    19:00 +15°C° 0 mm 5 mps 741 mmHg 51%
    20:00 +13°C° 0 mm 5 mps 741 mmHg 54%
    21:00 +13°C° 0 mm 6 mps 740 mmHg 52%
    22:00 +12°C° 0 mm 7 mps 740 mmHg 50%
    23:00 +12°C° 0 mm 8 mps 739 mmHg 48%

    14 April, Tuesday

    Time Temperature Precipitation Wind Pressure Humidity
    00:00 +11°C° 0 mm 8 mps 739 mmHg 49%
    01:00 +10°C° 0 mm 8 mps 738 mmHg 51%
    02:00 +9°C° 0 mm 7 mps 738 mmHg 52%
    03:00 +9°C° 0.6 mm 7 mps 738 mmHg 62%
    04:00 +8°C° 0.6 mm 7 mps 738 mmHg 71%
    05:00 +8°C° 0.6 mm 6 mps 738 mmHg 80%
    06:00 +5°C° 1 mm 6 mps 738 mmHg 78%
    07:00 +4°C° 1 mm 7 mps 739 mmHg 76%
    08:00 +3°C° 1 mm 7 mps 740 mmHg 74%
    09:00 +3°C° 0 mm 7 mps 740 mmHg 70%
    10:00 +3°C° 0 mm 7 mps 741 mmHg 65%
    11:00 +4°C° 0 mm 6 mps 741 mmHg 61%
    12:00 +4°C° 0 mm 6 mps 742 mmHg 55%
    13:00 +4°C° 0 mm 6 mps 742 mmHg 49%
    14:00 +6°C° 0 mm 5 mps 742 mmHg 43%
    15:00 +6°C° 0 mm 5 mps 742 mmHg 42%
    16:00 +6°C° 0 mm 5 mps 742 mmHg 40%
    17:00 +6°C° 0 mm 5 mps 742 mmHg 39%
    18:00 +5°C° 0 mm 5 mps 743 mmHg 43%
    19:00 +4°C° 0 mm 4 mps 743 mmHg 48%
    20:00 +3°C° 0 mm 4 mps 743 mmHg 52%
    21:00 +1°C° 0 mm 4 mps 743 mmHg 55%
    22:00 +2°C° 0 mm 3 mps 743 mmHg 58%
    23:00 +1°C° 0 mm 3 mps 743 mmHg 61%

    15 April, Wednesday

    Time Temperature Precipitation Wind Pressure Humidity
    00:00 +1°C° 0 mm 3 mps 743 mmHg 63%
    01:00 0°C° 0 mm 4 mps 742 mmHg 66%
    02:00 0°C° 0 mm 4 mps 742 mmHg 69%
    03:00 -1°C° 0.1 mm 5 mps 742 mmHg 76%
    04:00 -1°C° 0.1 mm 5 mps 742 mmHg 82%
    05:00 -2°C° 0.1 mm 6 mps 742 mmHg 89%
    06:00 -2°C° 0.3 mm 7 mps 742 mmHg 82%
    07:00 -2°C° 0.3 mm 7 mps 742 mmHg 76%
    08:00 -1°C° 0.3 mm 8 mps 742 mmHg 69%
    09:00 -1°C° 0.2 mm 8 mps 742 mmHg 66%
    10:00 0°C° 0.2 mm 7 mps 743 mmHg 62%
    11:00 +2°C° 0.2 mm 7 mps 743 mmHg 58%
    12:00 +3°C° 0.3 mm 7 mps 743 mmHg 55%
    13:00 +3°C° 0.3 mm 7 mps 743 mmHg 52%
    14:00 +4°C° 0.3 mm 7 mps 743 mmHg 48%
    15:00 +4°C° 0.2 mm 7 mps 743 mmHg 49%
    16:00 +4°C° 0.2 mm 6 mps 743 mmHg 49%
    17:00 +4°C° 0.2 mm 6 mps 743 mmHg 49%
    18:00 +3°C° 0 mm 5 mps 743 mmHg 55%
    19:00 +3°C° 0 mm 4 mps 743 mmHg 61%
    20:00 +2°C° 0 mm 3 mps 743 mmHg 67%
    21:00 +1°C° 0 mm 3 mps 743 mmHg 71%
    22:00 +1°C° 0 mm 3 mps 743 mmHg 74%
    23:00 0°C° 0 mm 3 mps 742 mmHg 78%
    Show more